Weather History for KMSY - January, 2013

Change the Weather History Date:

Sunday, January 20, 2013

  Actual Average Record
Temperature  
Mean Temperature 52 °F -  
Max Temperature 64 °F 59 °F 82 °F (1982)
Min Temperature 41 °F 41 °F 15 °F (1985)
Degree Days  
Heating Degree Days 12    
Growing Degree Days 2 (Base 50)    
Moisture  
Dew Point 45 °F    
Average Humidity 83    
Maximum Humidity 100    
Minimum Humidity 46    
Precipitation  
Precipitation 0.00 in - - ()
Sea Level Pressure  
Sea Level Pressure 30.23 in    
Wind  
Wind Speed 1 mph (ENE)    
Max Wind Speed 8 mph    
Max Gust Speed -    
Visibility 5 miles    
Events Fog    
Averages and records for this station are not official NWS values.
T = Trace of Precipitation, MM = Missing Value Source: NWS Daily Summary

Daily Weather History Graph

Daily Weather History Graph

Search for Another Location

Airport or City:

Trip Planner

Search our weather history database for the weather conditions in past years. The results will help you decide how hot, cold, wet, or windy it might be!

Date:

Astronomy

Jan. 20, 2013 Rise Set
Actual Time 6:56 AM CST 5:28 PM CST
Civil Twilight 6:30 AM CST 5:53 PM CST
Nautical Twilight 6:01 AM CST 6:22 PM CST
Astronomical Twilight 5:33 AM CST 6:51 PM CST
Moon 12:28 PM CST (1/20) 1:31 AM CST (1/20)
Length of Visible Light 11h 22m
Length of Day
10h 31m
Waxing Gibbous, 66% of the Moon is Illuminated
Jan 20
Waxing Gibbous
Jan 26
Full
Feb 3
Last Quarter
Feb 10
New
Feb 17
First Quarter

Hourly Weather History & Observations

Time (CST) Temp. Windchill Dew Point Humidity Pressure Visibility Wind Dir Wind Speed Gust Speed Precip Events Conditions
12:53 AM 48.0 °F - 46.0 °F 93% 30.27 in 9.0 mi Calm Calm - N/A Fog Shallow Fog
1:30 AM 46.4 °F - 44.6 °F 93% 30.26 in 8.0 mi Calm Calm - N/A Fog Shallow Fog
1:53 AM 46.0 °F - 44.1 °F 93% 30.28 in 8.0 mi Calm Calm - N/A Fog Shallow Fog
2:53 AM 45.0 °F - 44.1 °F 97% 30.27 in 6.0 mi Calm Calm - N/A Fog Scattered Clouds
3:21 AM 44.6 °F - 42.8 °F 93% 30.26 in 2.0 mi Calm Calm - N/A   Scattered Clouds
3:31 AM 44.6 °F - 44.6 °F 100% 30.25 in 1.0 mi Calm Calm - N/A   Scattered Clouds
3:40 AM 44.6 °F - 44.6 °F 100% 30.25 in 0.5 mi Calm Calm - N/A Fog Fog
3:48 AM 44.6 °F - 44.6 °F 100% 30.25 in 0.2 mi Calm Calm - N/A Fog Fog
3:49 AM 45.0 °F - 44.1 °F 97% 30.26 in 0.2 mi Calm Calm - N/A Fog Fog
3:52 AM 44.6 °F - 44.6 °F 100% 30.25 in 2.5 mi Calm Calm - N/A   Mostly Cloudy
3:57 AM 44.6 °F - 44.6 °F 100% 30.24 in 1.8 mi Calm Calm - N/A   Mostly Cloudy
4:49 AM 44.6 °F - 42.8 °F 93% 30.24 in 1.2 mi Calm Calm - N/A   Scattered Clouds
4:53 AM 44.1 °F - 43.0 °F 96% 30.25 in 1.2 mi Calm Calm - N/A   Scattered Clouds
5:05 AM 42.8 °F - 42.8 °F 100% 30.24 in 0.2 mi Calm Calm - N/A Fog Fog
5:49 AM 44.6 °F - 42.8 °F 93% 30.25 in 1.0 mi Calm Calm - N/A   Mostly Cloudy
5:53 AM 44.1 °F - 42.1 °F 93% 30.26 in 1.0 mi Calm Calm - N/A   Mostly Cloudy
6:05 AM 44.6 °F - 42.8 °F 93% 30.25 in 0.8 mi Calm Calm - N/A   Mostly Cloudy
6:53 AM 41.0 °F 39.0 °F 41.0 °F 100% 30.26 in 0.8 mi North 3.5 mph - N/A   Mostly Cloudy
7:03 AM 42.8 °F 41.1 °F 41.0 °F 93% 30.25 in 0.2 mi North 3.5 mph - N/A Fog Fog
7:53 AM 48.0 °F - 48.0 °F 100% 30.27 in 0.1 mi ENE 3.5 mph - N/A Fog Fog
8:53 AM 51.1 °F - 50.0 °F 96% 30.28 in 0.1 mi ENE 3.5 mph - N/A   Scattered Clouds
9:00 AM 51.8 °F - 50.0 °F 94% 30.27 in 1.5 mi East 3.5 mph - N/A   Scattered Clouds
9:09 AM 51.8 °F - 51.8 °F 100% 30.27 in 3.0 mi ENE 4.6 mph - N/A   Scattered Clouds
9:53 AM 57.0 °F - 50.0 °F 77% 30.29 in 10.0 mi North 5.8 mph - N/A   Partly Cloudy
10:53 AM 59.0 °F - 48.0 °F 67% 30.28 in 10.0 mi North 5.8 mph - N/A   Partly Cloudy
11:53 AM 61.0 °F - 46.9 °F 60% 30.25 in 10.0 mi North 8.1 mph - N/A   Scattered Clouds
12:53 PM 62.1 °F - 46.0 °F 56% 30.21 in 10.0 mi NNE 6.9 mph - N/A   Scattered Clouds
1:53 PM 63.0 °F - 46.0 °F 54% 30.18 in 10.0 mi NE 3.5 mph - N/A   Scattered Clouds
2:53 PM 64.0 °F - 45.0 °F 50% 30.18 in 10.0 mi NNE 4.6 mph - N/A   Partly Cloudy
3:53 PM 63.0 °F - 45.0 °F 52% 30.16 in 10.0 mi Calm Calm - N/A   Scattered Clouds
4:53 PM 60.1 °F - 43.0 °F 53% 30.16 in 10.0 mi Calm Calm - N/A   Scattered Clouds
5:53 PM 57.9 °F - 43.0 °F 58% 30.16 in 10.0 mi Calm Calm - N/A   Scattered Clouds
6:53 PM 55.0 °F - 42.1 °F 62% 30.17 in 10.0 mi Calm Calm - N/A   Scattered Clouds
7:53 PM 55.0 °F - 42.1 °F 62% 30.19 in 10.0 mi SE 8.1 mph - N/A   Partly Cloudy
8:53 PM 51.1 °F - 46.0 °F 83% 30.20 in 10.0 mi South 6.9 mph - N/A   Clear
9:53 PM 50.0 °F - 46.9 °F 89% 30.21 in 10.0 mi South 6.9 mph - N/A   Clear
10:53 PM 50.0 °F - 46.9 °F 89% 30.19 in 10.0 mi South 4.6 mph - N/A   Partly Cloudy
11:53 PM 48.9 °F - 46.9 °F 93% 30.17 in 7.0 mi South 4.6 mph - N/A   Partly Cloudy